Dewpoint
55 56 55 56 55 55 57 58 58 59 63 63 63 63 63 65 68 69 69 71 71 72 71 70 69 71 70 66 67 68 72 71 71 70 70 72 73 74 77 77 78 78 78 78 77 78 78 77 78 76 77 78 77 77 75 74 77 77 79 79 74 76 72 70 70 69 75 75 75 67 69 71 69 71 69 68 67 67 65 67 73 66 68 74 75
55 57 55 56 56 56 57 59 61 59 63 62 63 63 64 64 66 67 68 71 71 71 72 70 72 70 68 66 64 67 71 71 74 71 70 70 76 77 77 76 77 78 77 77 79 78 78 77 77 78 78 79 78 78 76 75 76 77 75 76 76 74 74 66 65 73 71 70 72 70 71 72 75 69 63 61 63 65 63 66 67 64 61 64 67
56 56 55 56 56 56 57 58 59 59 61 60 62 64 64 67 69 70 69 70 71 71 72 73 72 73 69 68 65 65 68 69 69 71 70 71 72 75 77 77 78 78 77 77 77 77 78 79 77 77 78 78 78 77 77 76 77 75 76 76 75 73 74 69 72 71 70 69 72 74 70 69 73 72 65 61 58 59 62 59 62 61 62 62 73
56 57 56 57 56 58 57 59 60 60 63 61 61 64 62 70 71 71 71 70 72 72 72 72 72 74 74 72 71 69 68 70 73 73 73 70 70 73 77 78 77 74 74 74 76 76 77 77 77 76 79 78 79 78 78 76 77 77 73 74 74 71 67 70 70 72 72 71 73 70 68 68 67 72 71 68 61 58 58 56 60 63 62 64 72
57 57 57 58 57 58 58 60 58 59 61 62 61 63 61 66 70 72 72 72 73 73 72 74 74 74 75 74 74 74 72 72 70 69 72 72 69 71 72 75 76 75 74 75 76 78 78 78 77 77 77 77 77 77 78 74 74 75 75 78 73 73 69 70 71 67 68 75 75 74 68 67 66 66 60 74 62 62 57 56 60 62 57 70 71
59 57 58 57 58 59 60 60 58 59 61 61 61 61 62 66 70 73 72 73 71 73 74 75 75 75 75 74 74 72 73 72 71 70 68 69 66 67 71 71 72 75 76 76 76 76 77 78 77 76 76 78 79 78 76 75 76 74 74 72 72 75 76 74 67 75 68 75 75 74 71 70 71 69 66 71 74 65 63 55 65 61 59 64 66
59 58 58 57 58 58 60 60 58 59 60 62 61 62 63 67 70 71 72 73 71 74 74 75 74 74 73 69 70 72 72 70 74 70 70 69 69 69 71 72 74 73 73 76 76 77 77 78 77 77 77 76 76 77 76 70 70 72 73 76 75 77 78 76 72 67 71 73 65 64 66 70 67 73 72 75 69 71 66 62 56 63 59 59 61
61 59 58 58 59 59 60 61 59 59 61 61 61 62 66 70 71 71 72 73 72 73 75 75 74 75 74 72 71 72 68 72 73 74 71 73 74 69 71 71 74 75 75 77 77 77 78 77 79 78 77 77 78 78 76 72 76 77 77 76 79 81 80 76 76 71 75 75 69 70 68 67 66 65 71 69 71 72 73 65 55 59 65 59 65
62 63 60 60 59 58 60 61 60 60 61 61 61 63 66 69 72 72 72 73 73 74 74 74 75 75 73 72 73 73 72 71 72 72 76 73 73 75 75 72 75 77 76 76 77 76 78 78 78 79 78 76 75 74 74 72 74 75 78 77 77 77 76 78 79 79 71 71 74 75 72 72 67 69 68 68 72 68 69 66 64 60 65 61 63
65 65 63 63 59 59 59 60 60 59 62 63 61 61 63 68 72 72 73 72 73 74 74 75 75 75 74 74 73 73 73 73 72 73 75 75 75 74 77 78 72 74 76 76 77 77 77 78 76 76 76 75 74 77 74 75 76 77 76 74 76 76 81 78 74 79 74 73 74 75 76 76 72 71 65 67 65 70 67 65 62 63 70 71 73
67 67 67 63 61 60 60 60 61 60 63 63 62 62 63 65 70 72 73 72 73 74 74 74 74 74 74 74 74 73 73 74 74 73 76 76 75 73 75 78 77 73 73 77 76 75 75 77 74 74 75 75 77 77 75 72 72 73 72 77 77 78 77 77 77 77 76 77 72 77 75 70 76 74 71 69 68 69 72 64 61 59 61 59 73
68 68 66 66 64 62 62 63 62 63 63 63 62 63 64 67 70 72 73 73 73 74 74 73 73 74 74 74 74 74 74 72 74 73 73 74 73 75 76 77 77 75 75 74 73 71 76 76 76 76 77 76 76 76 76 75 73 74 77 79 77 78 78 80 75 77 73 77 70 67 70 67 68 67 66 71 77 74 71 67 69 71 66 69 65
67 69 69 66 65 65 62 65 68 69 68 66 64 66 65 68 71 71 73 73 74 74 74 74 73 73 73 73 74 75 75 75 75 74 73 74 74 74 76 77 76 76 76 73 72 72 76 77 76 76 77 77 78 78 77 79 78 75 78 73 76 76 77 77 78 74 73 73 70 69 68 66 67 69 68 69 69 77 74 70 69 64 70 69 71
66 68 69 69 69 67 66 67 66 67 66 66 65 68 69 68 72 71 73 73 74 74 74 74 73 74 75 73 74 75 75 75 75 72 71 74 75 74 71 72 75 73 73 75 72 72 74 75 76 76 78 77 78 77 78 78 78 78 76 78 73 78 79 78 78 75 76 73 73 71 67 68 68 67 66 67 66 66 70 72 71 71 66 66 76
65 68 68 69 69 68 67 67 65 66 65 64 66 69 72 71 73 73 73 73 74 74 74 74 73 74 74 74 74 74 73 73 75 74 74 73 70 70 74 71 71 72 74 76 76 76 75 76 76 76 77 78 78 77 77 78 78 78 79 77 81 75 77 77 76 73 69 69 71 75 74 70 71 73 66 67 69 69 70 70 71 69 68 68 70
67 67 68 68 69 69 70 70 71 68 68 66 66 70 69 73 74 74 74 74 74 75 75 74 74 73 75 75 74 74 74 73 75 76 76 73 73 73 74 76 73 74 74 75 73 74 75 75 76 74 77 76 77 78 77 77 78 78 79 78 77 73 77 75 77 74 72 73 71 78 76 69 71 67 73 69 72 71 73 75 81 78 71 70 70
66 68 67 68 69 69 69 70 69 70 71 71 73 71 71 73 74 75 75 74 74 75 74 74 74 74 74 73 73 73 72 71 70 71 69 71 74 72 71 70 72 75 72 72 73 76 76 75 75 72 76 77 77 78 77 78 79 78 76 78 76 73 76 77 76 77 77 70 70 71 76 78 75 75 72 73 75 75 75 77 75 77 75 75 71
67 68 69 68 69 69 69 68 69 69 71 72 72 71 72 73 73 73 73 74 73 73 73 73 74 74 74 74 74 73 70 69 69 70 70 71 72 73 71 71 70 68 69 68 73 73 75 75 76 76 74 74 75 74 76 77 79 79 77 79 78 77 78 78 78 76 76 75 73 74 72 74 75 72 71 67 76 78 77 74 77 75 78 77 75
66 68 68 68 68 69 71 70 71 71 73 71 71 72 71 72 73 71 70 73 72 73 72 73 74 72 71 72 72 72 71 70 70 72 72 70 69 70 69 70 68 72 74 77 74 72 74 74 77 74 76 75 75 75 76 77 77 77 76 76 77 78 78 79 80 77 74 77 77 74 78 79 76 75 75 71 75 76 75 76 76 82 77 81 79
66 67 67 67 67 67 71 72 71 73 73 73 71 70 70 72 73 72 72 75 75 75 74 73 74 71 70 73 74 74 74 72 71 71 68 68 69 69 69 67 69 69 69 72 73 71 72 71 70 70 70 71 72 72 73 76 76 76 74 72 74 77 76 77 75 74 70 74 76 76 77 78 79 79 78 75 78 75 77 77 77 75 75 75 78
62 62 65 66 67 68 68 70 72 72 71 71 71 71 70 72 73 73 73 74 73 73 75 75 75 75 76 74 73 72 71 70 68 68 69 69 69 70 68 68 70 69 69 68 71 73 73 72 71 72 70 72 75 74 73 76 76 77 77 77 76 76 77 76 77 76 72 75 78 78 77 76 78 77 78 75 73 75 73 73 74 80 76 76 76
59 59 59 60 63 68 70 70 70 71 71 70 73 73 72 71 70 70 71 72 72 72 72 74 76 75 75 75 74 74 71 70 68 66 67 68 68 69 70 70 67 70 70 66 70 68 71 72 70 72 72 72 75 76 70 73 75 76 75 71 72 77 77 76 77 76 75 73 76 77 76 75 77 75 75 70 70 67 68 67 71 71 73 74 75
57 58 59 59 61 62 65 65 66 68 70 71 72 73 72 73 73 73 72 73 73 71 70 74 75 75 74 74 73 74 73 71 67 66 64 64 66 67 69 69 65 65 69 69 69 68 72 74 72 73 75 73 75 73 73 73 74 75 74 72 70 73 74 74 74 75 74 75 74 76 74 74 70 72 73 71 69 70 69 71 71 75 76 75 78
58 59 59 60 60 61 62 62 63 65 69 71 72 72 72 73 73 73 73 74 74 74 74 73 71 71 72 72 73 73 71 71 67 65 65 63 63 65 67 66 65 64 65 69 70 70 72 74 73 74 75 74 75 73 72 72 74 74 74 74 75 76 73 73 73 73 72 73 73 75 72 72 73 74 76 76 77 74 74 76 75 76 77 74 75
57 58 59 59 59 60 61 62 63 63 64 67 69 70 71 73 73 73 73 73 73 73 74 74 71 70 74 76 71 75 73 72 71 67 63 63 62 63 65 65 65 64 64 66 70 72 74 74 70 72 74 74 73 74 74 71 71 71 73 72 73 74 74 74 73 74 74 75 74 73 73 73 75 75 76 75 73 73 72 71 72 74 74 74 74
57 57 57 58 58 58 59 61 63 61 61 64 66 68 70 72 72 72 72 73 73 71 72 73 72 72 72 72 72 71 72 71 72 71 68 63 62 61 62 64 65 65 66 64 68 68 70 74 73 72 72 74 74 74 75 73 70 69 71 71 72 73 72 73 73 73 73 73 72 74 73 74 74 73 71 72 74 74 75 72 72 74 76 78 79
54 55 56 57 58 57 57 58 58 60 59 60 62 63 65 68 69 72 72 70 73 72 72 72 72 73 73 73 73 73 72 70 71 70 69 66 63 61 60 61 64 65 64 62 64 68 69 71 73 72 71 73 73 73 75 75 73 72 72 71 70 71 71 71 71 71 69 70 71 70 72 73 72 73 71 72 74 74 72 73 76 78 77 76 74
52 53 54 55 56 56 56 56 56 59 60 58 59 61 63 65 67 66 64 65 65 68 70 72 72 73 72 74 73 74 74 74 72 74 73 69 66 64 63 63 65 65 63 62 60 65 68 68 70 70 72 73 74 73 74 75 74 72 71 71 71 70 68 69 69 70 69 67 68 68 65 68 70 72 72 72 74 74 75 73 74 74 74 75 74
50 51 52 53 53 54 54 54 55 55 56 61 62 58 61 64 65 66 64 65 66 66 68 69 71 72 73 73 74 74 74 75 75 75 74 73 72 72 72 69 70 65 62 62 62 60 64 66 67 69 70 70 69 70 70 72 73 74 73 70 70 69 69 69 69 67 68 68 66 65 64 63 69 75 73 73 72 73 71 74 75 75 76 77 76
47 48 48 50 51 52 53 53 55 54 53 53 54 58 57 59 59 60 62 65 66 67 68 70 71 73 73 72 73 72 72 74 73 72 73 73 74 74 72 72 71 67 69 69 68 66 62 64 66 68 69 67 67 67 71 69 70 72 72 70 69 70 70 70 71 70 67 67 64 62 61 71 75 77 75 73 71 72 75 72 75 77 77 76 76
46 48 47 48 49 49 50 51 52 51 50 52 53 54 54 56 57 58 60 61 63 70 70 68 71 71 73 72 71 71 72 73 74 74 74 75 75 74 75 74 73 73 72 74 70 66 62 60 62 64 66 65 66 66 67 64 65 68 72 73 72 72 72 72 71 72 71 67 65 65 64 68 73 76 77 73 72 71 70 71 72 74 76 75 75
45 46 46 46 46 48 49 48 47 46 46 48 54 51 50 53 56 57 58 61 63 64 66 66 66 68 71 71 72 72 73 73 72 71 72 74 74 74 74 73 71 71 72 71 70 70 70 67 62 61 62 64 65 66 62 62 63 64 69 72 71 70 69 70 70 69 70 69 67 64 62 59 63 67 69 75 73 70 69 69 68 69 70 71 71
46 47 47 45 45 46 49 47 47 51 47 46 47 47 55 55 57 57 58 60 62 64 64 64 66 67 68 71 72 71 71 71 71 71 72 73 73 73 72 73 73 73 72 74 73 71 71 71 68 69 65 61 63 63 60 60 62 63 63 69 70 70 69 67 67 69 69 70 70 68 65 62 57 72 72 69 72 71 68 66 68 69 70 68 65
44 46 48 49 47 47 48 48 48 48 45 46 50 45 47 49 54 60 61 62 63 64 63 62 64 65 66 67 68 71 72 72 72 72 73 73 73 72 73 74 74 74 74 74 73 74 73 73 72 72 72 69 67 64 59 58 60 61 62 65 71 71 70 68 68 67 67 68 70 70 69 67 67 67 69 73 74 74 72 71 71 71 71 71 70
45 45 45 47 49 50 51 51 48 48 48 47 46 44 45 47 49 48 52 61 61 64 63 60 61 62 64 65 67 69 71 71 72 72 72 71 72 72 72 73 73 75 75 74 74 74 74 74 72 70 70 69 66 63 59 56 57 59 61 63 70 71 69 68 68 69 71 69 71 69 69 68 70 71 71 70 69 74 76 75 73 71 71 71 71
42 44 46 47 43 46 47 50 52 53 50 47 47 46 45 45 43 45 49 53 58 62 61 61 60 58 62 64 65 66 68 69 71 71 71 72 71 71 72 73 75 75 75 75 75 74 73 72 72 71 70 71 69 63 61 56 56 57 60 67 69 71 70 69 68 68 68 70 70 70 72 72 72 72 73 70 71 72 70 72 74 75 75 74 73
41 40 43 46 45 43 45 46 46 48 50 50 52 50 47 47 46 44 57 57 53 57 57 61 62 61 61 62 65 67 67 69 70 70 70 71 72 73 73 74 74 74 73 74 74 73 73 73 71 71 70 71 71 67 61 57 55 56 59 67 70 71 71 71 70 70 70 70 69 70 70 67 68 71 71 66 65 70 70 69 69 69 68 67 69
40 41 41 43 43 42 42 41 41 43 46 48 50 53 48 51 49 46 44 51 49 49 50 55 59 63 64 63 64 65 65 66 67 68 70 71 72 73 73 74 73 73 73 72 73 73 73 73 71 71 70 70 70 69 63 59 55 55 61 67 70 71 71 72 72 72 72 72 72 73 74 70 69 69 64 63 63 68 72 71 70 68 67 67 68
38 39 38 38 42 43 41 41 40 42 43 44 44 49 49 49 51 49 47 46 47 50 50 51 51 53 58 61 62 62 61 61 65 67 67 70 71 71 72 72 73 72 72 73 73 72 72 72 71 71 72 71 70 69 63 59 54 54 60 69 71 71 70 70 70 71 72 72 72 73 74 72 71 69 63 62 62 68 72 72 71 70 68 67 67
36 39 37 40 44 41 39 37 38 42 41 42 43 46 50 50 50 48 48 48 50 52 52 52 52 53 55 58 59 65 65 64 63 64 65 67 68 68 70 70 71 71 70 70 70 70 71 71 71 70 70 70 69 70 72 62 55 53 55 69 73 72 71 70 70 71 71 72 72 72 72 64 62 62 61 61 61 60 70 72 72 71 69 69 69
36 39 44 39 39 39 38 37 42 45 39 41 44 44 48 51 51 50 51 50 52 53 54 56 56 52 51 54 56 59 63 64 65 68 67 67 69 70 71 72 69 67 68 70 70 70 69 70 70 71 71 71 70 70 71 62 55 52 52 59 71 73 72 72 72 71 71 70 70 72 72 68 61 60 59 58 58 57 63 72 73 72 71 71 74
41 42 42 40 38 40 40 39 41 39 41 41 44 49 51 52 50 50 51 51 53 55 55 56 56 54 53 53 55 59 59 61 64 66 67 71 71 70 71 70 67 68 69 69 70 70 68 69 71 70 71 73 73 70 72 65 60 54 51 50 67 72 72 72 72 71 71 71 71 71 72 70 61 59 58 57 56 58 58 71 72 65 65 65 72
40 40 40 40 41 41 41 41 39 40 42 43 44 48 50 51 51 53 52 53 54 55 56 56 56 55 56 58 60 60 60 60 63 65 64 64 66 66 68 71 71 71 70 69 70 70 69 68 69 71 71 74 72 73 67 70 63 55 51 51 53 63 65 73 70 70 71 71 71 72 73 71 62 56 56 56 56 56 58 64 61 61 61 63 68
41 40 42 43 44 45 43 43 42 45 45 46 48 49 51 51 53 54 53 54 54 54 56 55 56 56 55 55 55 53 54 53 55 57 61 63 64 65 67 69 70 70 70 71 71 71 71 70 68 68 69 75 73 73 71 67 68 56 51 51 52 53 59 68 71 69 70 70 72 71 72 61 60 55 53 54 56 56 61 58 57 59 60 63 69
44 42 46 45 44 44 44 45 45 48 48 50 50 50 51 52 53 55 55 54 54 54 55 55 56 56 56 55 55 56 55 55 54 54 57 59 60 62 64 67 68 67 68 70 70 70 69 69 69 69 70 76 75 73 73 71 66 63 58 53 51 52 53 53 65 70 71 70 66 55 55 56 58 57 51 52 53 54 54 56 57 58 62 67 68
44 46 46 45 44 45 45 46 47 48 48 51 50 50 52 52 52 54 54 55 55 55 55 55 55 56 56 56 55 53 53 56 57 58 60 61 61 62 64 65 65 66 67 68 69 69 69 69 69 71 74 75 75 75 73 73 72 72 68 59 53 52 54 55 58 61 60 58 57 56 56 57 58 59 63 65 67 66 58 56 57 60 65 67 68
46 46 46 46 46 45 46 46 47 48 48 48 49 50 52 53 54 52 52 55 55 55 56 56 57 56 57 57 57 54 54 55 58 57 56 57 58 60 61 63 63 63 64 66 66 67 68 68 72 72 73 74 74 74 73 73 74 75 75 69 62 60 58 55 60 62 62 64 64 65 64 61 60 62 65 68 68 68 67 64 61 62 64 66 67
46 46 46 46 46 46 46 47 48 48 49 49 50 50 52 52 52 51 51 52 54 54 53 54 53 52 53 52 52 55 54 51 49 49 50 50 51 50 48 55 58 59 63 64 63 65 67 69 69 71 71 72 72 72 72 72 73 73 75 76 73 72 70 68 66 67 67 67 67 64 64 67 68 69 69 68 68 69 69 69 68 66 65 66 68
44 45 46 46 46 46 47 46 46 47 48 49 50 50 50 51 51 51 53 52 52 53 54 52 52 52 52 54 51 52 51 51 52 54 52 57 56 52 53 56 56 62 62 58 60 61 63 61 60 64 67 66 66 66 72 59 64 56 63 66 68 70 71 73 73 65 70 70 70 70 69 69 69 68 68 68 68 68 69 69 70 70 69 68 68
43 44 44 45 46 46 46 46 47 48 48 49 49 49 49 47 48 48 50 51 52 51 51 51 51 51 52 52 53 52 53 54 52 50 52 53 58 53 55 58 54 58 55 52 52 60 59 58 57 60 63 63 62 64 60 54 51 51 51 52 54 53 54 63 64 60 66 69 70 69 69 69 68 69 68 68 68 69 69 69 70 66 69 69 69
42 42 43 44 45 45 45 46 47 47 46 47 48 47 48 46 49 49 48 51 52 51 50 49 51 51 52 53 53 53 55 57 55 55 54 53 53 54 48 48 49 51 49 48 50 50 50 52 61 61 62 58 58 56 54 52 51 51 51 51 51 50 50 50 52 61 68 69 69 69 69 69 69 70 70 70 69 70 70 70 70 70 70 69 68